This is the latest recevied weather packets stored in our database for station/object 9W2CHF-4. If no packets are shown the sender has not sent any weather packets the latest 1 day(s).
| Time | Temp. | Humidity | Pressure | Rain* | Wind** | Luminosity | Snow |
|---|---|---|---|---|---|---|---|
| 1778221423 | 32.22° C | 94% | 1009 hPa | - | - | - | - |
| 1778220523 | 32.22° C | 92% | 1008.8 hPa | - | - | - | - |
| 1778219623 | 32.22° C | 92% | 1008.6 hPa | - | - | - | - |
| 1778218723 | 32.22° C | 90% | 1008.8 hPa | - | - | - | - |
| 1778217823 | 32.78° C | 91% | 1009.3 hPa | - | - | - | - |
| 1778216923 | 32.78° C | 89% | 1009.8 hPa | - | - | - | - |
| 1778216023 | 32.78° C | 89% | 1009.9 hPa | - | - | - | - |
| 1778215123 | 32.22° C | 90% | 1010 hPa | - | - | - | - |
| 1778214222 | 32.22° C | 90% | 1010.2 hPa | - | - | - | - |
| 1778213322 | 32.22° C | 90% | 1010.1 hPa | - | - | - | - |
| 1778212422 | 32.22° C | 91% | 1010.1 hPa | - | - | - | - |
| 1778211522 | 31.67° C | 94% | 1010.4 hPa | - | - | - | - |
| 1778210621 | 32.22° C | 94% | 1010.5 hPa | - | - | - | - |
| 1778209721 | 31.67° C | 94% | 1010.7 hPa | - | - | - | - |
| 1778208821 | 31.67° C | 94% | 1011.1 hPa | - | - | - | - |
| 1778207921 | 31.67° C | 93% | 1010.9 hPa | - | - | - | - |
| 1778207021 | 31.67° C | 93% | 1010.8 hPa | - | - | - | - |
| 1778206121 | 31.67° C | 92% | 1011 hPa | - | - | - | - |
| 1778205221 | 31.67° C | 93% | 1010.8 hPa | - | - | - | - |
| 1778204321 | 31.67° C | 93% | 1010.8 hPa | - | - | - | - |
| 1778203421 | 31.67° C | 91% | 1010.5 hPa | - | - | - | - |
| 1778202521 | 31.11° C | 93% | 1010.2 hPa | - | - | - | - |
| 1778200720 | 31.67° C | 91% | 1010.1 hPa | - | - | - | - |
| 1778199820 | 31.67° C | 91% | 1009.9 hPa | - | - | - | - |
* Rain since midnight (hover to see other rain measurements)
** Current wind speed in m/s (hover to see current wind gust speed)